Regional Weather Roundup
Issued by NWS

Home | Current Version | Previous Version | Graphics & Text | Print | Product List | Glossary On
Versions: 1 2 3 4 5 6 7 8 9 10 11 12 13 14 15 16 17 18 19 20 21 22 23 24 25 26 27 28 29 30 31 32 33 34 35 36 37 38 39 40 41 42 43 44 45 46 47 48 49 50
872
ASUS43 KBIS 212102
RWRND

NORTH DAKOTA REGIONAL WEATHER ROUNDUP
NATIONAL WEATHER SERVICE BISMARCK ND
300 PM CST SUN JAN 21 2018

NOTE: "FAIR" INDICATES FEW OR NO CLOUDS BELOW 12,000 FEET WITH NO
SIGNIFICANT WEATHER AND/OR OBSTRUCTIONS TO VISIBILITY.


NDZ001>003-009>011-017-212200-
NORTHWEST NORTH DAKOTA

CITY           SKY/WX    TMP DP  RH WIND       PRES   REMARKS
WILLISTON      SUNNY     29  20  69 S5        29.98F
MINOT          SUNNY     31  21  66 S8        29.98F
MINOT AFB      SUNNY     31  22  67 SW7       29.97F
$$

NDZ018>021-031>035-040>046-212200-
SOUTHWEST NORTH DAKOTA

CITY           SKY/WX    TMP DP  RH WIND       PRES   REMARKS
BISMARCK       PTSUNNY   27  22  81 SE5       30.02S
DICKINSON      MOSUNNY   33  23  66 W9        29.95F
GARRISON         N/A     30  23  75 S6        29.98F
HETTINGER ARPT MOSUNNY   37  23  56 W8        29.98F
$$

NDZ004>008-012>016-024-026-027-054-212200-
NORTHEAST NORTH DAKOTA

CITY           SKY/WX    TMP DP  RH WIND       PRES   REMARKS
GRAND FORKS    CLOUDY    26  23  88 N8        30.07S WCI  18
GRND FRKS AFB  CLOUDY    26  22  83 NE8       30.06F WCI  18
DEVILS LAKE    FOG       23  21  92 CALM      30.04F VSB 1/4
$$

NDZ022-023-025-028>030-036>039-047>053-212200-
SOUTHEAST NORTH DAKOTA

CITY           SKY/WX    TMP DP  RH WIND       PRES   REMARKS
FARGO          PTSUNNY   29  25  85 N9        30.05F
JAMESTOWN      CLOUDY    25  25 100 CALM      30.03S FOG
$$





USA.gov is the U.S. government's official web portal to all federal, state and local government web resources and services.